Wind_Speed
34 34 33 33 33 34 34 34 33 33 34 35 34 33 33 34 34 34 34 35 35 37 37 37 38 39 41 42 43 44 46 47 48 49 50 50 50 51 52 53 54 55 56 57
36 35 34 35 35 36 36 36 35 35 36 37 36 35 34 35 34 34 35 36 36 37 39 39 40 41 43 44 45 46 47 48 49 50 51 51 51 52 52 53 54 55 56 57
38 37 37 37 37 37 37 37 37 37 37 38 39 37 35 35 35 36 37 37 38 39 40 41 41 42 43 45 46 47 48 49 50 51 52 52 52 52 52 52 53 54 56 56
39 38 38 38 38 38 38 38 39 39 39 39 40 41 37 36 37 37 37 38 39 41 41 40 41 42 43 44 46 47 48 49 50 51 52 52 52 52 51 51 51 53 54 55
39 38 38 38 38 38 39 39 40 41 41 42 40 42 40 38 37 38 39 39 40 41 41 41 41 42 43 44 45 46 47 48 49 50 51 51 52 51 51 50 50 51 52 53
39 39 39 38 38 39 39 40 41 42 43 44 41 42 42 39 38 39 39 40 40 41 41 41 41 41 43 44 45 45 46 47 48 49 50 50 51 50 49 49 48 49 50 51
40 40 40 40 39 39 39 40 41 43 44 45 43 43 43 40 39 39 40 40 40 41 41 42 42 42 42 43 44 44 45 46 46 47 48 48 49 49 48 47 47 47 48 49
40 40 40 40 40 40 40 40 41 44 45 45 44 44 43 41 40 39 40 40 40 41 41 42 42 43 43 43 43 44 45 45 45 45 46 46 46 47 47 47 47 46 46 48
41 41 40 40 40 40 40 40 40 43 44 45 45 45 43 41 40 39 40 40 40 41 41 41 41 42 43 42 42 43 44 44 44 44 44 44 45 45 46 47 46 45 46 46
41 42 41 40 40 41 41 40 40 42 43 44 45 44 42 41 39 38 38 38 38 39 39 39 40 41 42 42 42 44 43 43 43 43 43 43 44 44 44 45 45 45 45 46
41 42 42 41 40 40 40 40 40 41 42 43 44 42 41 40 39 38 38 38 37 37 37 38 38 40 41 41 41 41 42 42 43 43 43 43 43 42 43 43 43 43 43 43
40 41 41 41 40 40 40 40 39 40 41 43 44 42 39 39 39 38 37 37 37 37 37 37 38 39 40 40 40 41 41 42 42 42 41 41 41 40 41 41 41 41 41 41
40 41 41 41 40 39 39 39 39 39 41 42 42 41 38 38 38 37 37 37 37 36 36 36 37 38 38 39 40 41 41 42 41 41 41 41 40 39 40 40 39 39 40 40
40 41 41 41 40 39 39 38 38 39 41 41 40 39 37 37 37 37 37 37 37 36 37 37 37 38 38 38 39 40 40 41 42 41 40 40 39 39 38 39 39 39 39 39
39 40 39 39 39 39 39 37 37 38 39 40 39 38 36 36 38 38 38 38 38 37 37 37 38 38 38 38 39 40 40 41 41 40 39 39 39 39 38 37 38 37 37 37
40 40 39 39 38 39 40 38 37 37 38 39 38 38 35 36 38 39 39 38 38 37 38 38 38 38 38 38 38 39 39 39 39 39 38 38 37 37 37 36 36 35 35 35
40 41 42 41 40 41 41 37 37 37 37 38 38 37 37 38 39 39 39 39 38 38 38 38 39 39 38 38 38 38 38 37 37 36 36 36 36 36 36 36 35 34 34 33
40 40 42 42 41 42 39 38 38 38 38 38 39 38 38 38 39 39 38 38 38 38 38 38 37 37 37 37 37 37 36 36 36 35 35 34 35 34 34 34 34 33 32 32
37 38 40 40 41 41 38 37 37 38 38 37 37 37 37 37 37 37 37 37 37 37 37 36 36 36 36 36 36 36 36 36 35 35 35 35 34 33 32 32 31 31 31 31
36 36 37 38 39 39 35 35 35 36 36 34 34 34 34 35 36 35 36 36 37 37 36 36 36 37 37 37 37 36 36 36 36 36 35 34 33 32 32 32 31 30 29 28
33 34 35 35 36 36 33 33 34 35 34 33 32 33 33 34 34 34 35 36 37 37 37 37 37 37 37 37 37 37 36 36 36 35 35 33 32 32 31 31 30 28 26 25
31 32 32 32 34 33 32 33 33 33 33 33 33 32 33 33 33 34 35 36 37 37 37 37 37 38 37 37 36 36 36 35 35 34 33 32 31 30 29 28 27 26 25 24
30 30 30 31 30 30 31 31 31 31 32 31 32 32 33 33 33 34 34 35 35 36 36 36 36 36 36 35 35 34 33 33 32 31 30 29 29 28 27 26 24 25 25 25
29 29 30 31 30 30 30 30 30 30 31 31 31 32 32 32 33 33 34 34 34 34 34 34 34 33 33 32 31 31 30 29 28 26 26 25 25 25 25 25 24 24 24 24
27 29 30 29 28 28 28 29 30 30 31 31 31 32 32 32 32 32 32 32 31 31 30 30 30 30 29 28 27 26 26 26 25 24 24 24 23 23 23 23 22 22 22 22
26 28 29 28 28 28 28 28 28 28 28 29 30 30 30 31 30 30 30 30 29 29 28 27 27 27 26 25 25 24 24 24 24 23 23 23 22 22 22 22 21 22 22 21
Wind_Direction
262 262 263 264 265 266 267 267 267 268 268 266 265 264 265 265 264 264 265 265 266 267 266 267 267 267 267 267 268 268 267 267 268 269 269 269 269 269 268 268 267 266 265 263
262 262 262 263 264 265 267 268 269 269 269 267 266 265 266 266 265 266 267 268 269 269 269 270 268 269 269 269 269 270 269 269 269 270 270 271 271 270 268 268 267 266 265 264
261 261 261 263 264 266 267 268 269 270 269 269 268 266 265 265 264 266 268 269 270 270 270 271 271 270 271 272 272 271 271 270 270 271 271 271 271 271 270 269 268 267 266 265
260 261 261 262 263 265 266 267 268 269 270 269 269 269 266 264 265 267 268 270 271 272 272 273 273 273 273 274 273 272 272 272 271 271 272 272 272 271 271 270 269 267 265 265
259 259 260 261 262 264 265 265 267 268 269 269 270 271 269 267 267 268 269 270 271 273 273 273 274 274 274 274 274 273 272 273 272 273 273 273 273 273 271 270 269 267 265 265
258 258 259 261 262 263 265 266 267 268 268 269 270 271 272 269 270 271 271 272 273 273 273 274 274 276 275 275 275 273 273 274 274 275 275 275 274 273 271 270 269 268 266 265
256 257 259 260 261 263 264 266 268 269 269 270 271 271 272 273 273 274 273 272 274 275 275 275 276 277 277 277 275 274 275 276 275 276 277 277 276 273 271 270 270 269 267 265
257 257 258 260 261 263 264 266 267 270 271 271 271 272 273 275 275 275 274 274 275 276 276 277 277 277 276 276 276 275 276 276 276 276 278 277 277 273 270 269 270 269 267 265
258 259 259 260 261 262 263 264 266 269 271 271 271 272 274 275 276 277 275 275 276 276 277 277 277 276 276 276 276 277 277 276 277 277 278 276 277 275 272 270 269 267 266 265
257 259 259 260 260 260 262 264 266 267 270 271 271 272 275 275 276 276 275 275 275 276 276 277 277 276 276 277 278 278 278 277 278 278 277 277 277 276 273 271 269 267 265 264
257 258 259 261 261 261 261 263 265 267 267 269 271 272 275 277 277 277 276 275 276 277 278 278 279 277 276 277 278 278 278 278 278 278 277 278 278 276 273 271 269 267 265 262
256 257 258 260 261 261 262 263 264 265 267 268 269 271 272 275 275 275 275 275 275 276 278 278 278 277 276 275 276 277 278 279 279 278 277 278 278 277 274 271 270 268 266 264
256 258 259 259 259 260 262 263 264 265 265 266 267 269 271 272 273 273 273 273 273 275 277 277 277 277 276 275 276 277 278 278 279 278 277 278 278 276 275 272 269 268 267 265
253 256 258 260 261 261 261 262 262 263 264 265 266 267 268 270 271 271 271 273 273 274 276 277 277 277 276 276 277 277 278 279 279 277 277 278 278 277 274 272 270 267 266 265
251 254 256 258 259 259 259 260 261 262 264 266 266 266 268 269 269 269 270 272 272 274 276 277 277 276 276 277 279 279 279 279 280 277 278 280 278 276 274 272 269 266 265 264
252 254 254 255 257 258 258 259 261 262 263 265 266 267 267 269 269 269 271 272 272 273 275 276 275 276 278 279 280 281 281 280 279 279 279 279 278 277 275 273 269 266 264 264
252 253 254 254 254 256 257 258 260 261 263 265 266 268 267 266 268 270 270 271 272 273 274 275 276 278 279 280 281 281 280 279 278 278 279 279 278 277 275 272 269 266 264 263
251 251 253 254 254 256 258 258 258 260 262 264 266 268 269 269 268 269 270 271 271 272 274 275 275 276 278 279 280 281 278 276 276 276 277 279 278 277 275 272 268 265 263 263
250 252 254 255 257 258 257 258 259 261 262 264 267 268 268 268 267 266 267 269 271 272 272 273 274 275 276 277 278 278 277 276 276 277 278 278 278 277 274 271 268 266 264 263
249 252 254 256 258 260 260 260 260 262 264 264 266 267 266 266 267 267 267 268 271 272 273 274 275 276 277 278 279 278 277 277 276 276 276 277 276 274 273 271 269 266 265 263
249 252 255 256 259 261 261 262 262 264 265 265 268 269 268 267 269 270 269 270 271 273 274 274 275 276 278 278 278 278 277 277 277 276 275 275 273 272 271 269 267 264 262 260
249 251 253 255 257 261 262 262 262 265 266 267 269 269 270 270 272 273 273 273 273 274 274 274 274 275 276 278 278 278 277 276 276 276 275 273 272 269 267 266 263 259 258 259
250 252 253 254 257 258 258 260 262 265 267 268 268 268 270 272 273 275 276 276 276 275 275 275 275 274 276 278 278 278 277 276 274 273 271 270 268 267 266 263 260 257 257 258
249 251 253 254 256 256 257 258 261 263 265 267 268 269 271 272 273 274 275 276 276 276 275 275 274 275 276 277 276 277 276 275 273 270 269 268 266 264 263 260 259 256 256 255
251 253 253 255 256 256 256 258 260 262 263 264 265 268 270 272 274 275 276 276 275 275 274 273 273 274 274 275 276 276 275 272 270 269 268 266 264 260 258 256 256 253 251 251
251 254 255 254 254 256 257 259 259 260 261 263 265 269 272 274 274 275 275 274 274 274 274 274 273 274 273 273 275 276 274 270 267 266 267 266 263 260 258 256 253 250 249 248
Height
5700 5702 5702 5702 5702 5701 5701 5701 5701 5701 5699 5699 5699 5700 5701 5700 5700 5701 5701 5702 5703 5703 5703 5703 5703 5703 5703 5703 5703 5703 5703 5703 5703 5702 5702 5702 5702 5702 5701 5700 5700 5700 5701 5702
5691 5693 5693 5692 5692 5692 5692 5692 5692 5692 5690 5689 5690 5691 5692 5692 5692 5692 5692 5692 5693 5693 5693 5692 5692 5692 5691 5691 5691 5691 5690 5689 5689 5688 5688 5688 5688 5687 5686 5685 5684 5684 5685 5686
5681 5683 5682 5682 5682 5682 5682 5682 5682 5681 5680 5679 5679 5681 5683 5683 5682 5682 5682 5682 5682 5682 5682 5681 5680 5679 5679 5678 5678 5677 5676 5675 5675 5674 5674 5673 5672 5672 5671 5670 5669 5669 5669 5669
5670 5672 5672 5672 5672 5672 5672 5672 5671 5670 5670 5670 5670 5669 5674 5674 5673 5673 5673 5672 5671 5670 5670 5669 5668 5667 5666 5665 5664 5663 5662 5661 5660 5659 5658 5658 5657 5657 5656 5655 5654 5653 5653 5652
5660 5661 5661 5662 5663 5662 5662 5662 5661 5660 5659 5659 5660 5658 5662 5663 5663 5663 5662 5661 5660 5659 5658 5657 5656 5654 5653 5652 5650 5648 5647 5646 5645 5644 5643 5642 5642 5641 5641 5639 5639 5638 5638 5638
5649 5649 5650 5651 5652 5652 5651 5651 5650 5649 5648 5649 5651 5649 5650 5652 5652 5651 5651 5650 5648 5647 5646 5645 5643 5642 5640 5638 5636 5635 5633 5632 5631 5630 5629 5627 5627 5626 5625 5624 5624 5624 5624 5624
5638 5638 5639 5640 5641 5641 5641 5641 5639 5637 5637 5638 5639 5638 5640 5641 5640 5639 5639 5638 5637 5635 5634 5633 5631 5629 5627 5625 5623 5622 5620 5619 5618 5616 5615 5613 5612 5610 5610 5610 5610 5610 5611 5611
5625 5628 5628 5629 5630 5631 5631 5630 5630 5628 5627 5627 5627 5627 5630 5630 5629 5627 5626 5626 5624 5624 5622 5620 5618 5617 5615 5612 5611 5610 5608 5607 5605 5604 5602 5600 5598 5596 5596 5596 5596 5597 5597 5598
5613 5615 5617 5618 5618 5619 5619 5619 5619 5618 5615 5615 5616 5617 5619 5618 5617 5616 5615 5614 5613 5612 5610 5608 5606 5604 5602 5600 5599 5597 5595 5594 5593 5591 5590 5587 5585 5584 5583 5583 5583 5583 5584 5585
5601 5603 5605 5606 5606 5607 5608 5608 5608 5606 5605 5604 5605 5606 5608 5607 5606 5605 5604 5603 5602 5600 5598 5596 5595 5593 5591 5589 5587 5585 5584 5582 5581 5579 5578 5576 5574 5572 5570 5570 5570 5570 5571 5572
5589 5591 5593 5594 5596 5597 5597 5597 5596 5595 5594 5594 5594 5598 5598 5597 5595 5594 5593 5591 5590 5589 5587 5586 5584 5582 5580 5578 5576 5574 5573 5571 5570 5568 5567 5565 5562 5560 5559 5558 5558 5558 5559 5560
5577 5578 5580 5583 5584 5584 5585 5585 5585 5585 5585 5583 5583 5589 5588 5586 5584 5583 5582 5580 5579 5578 5577 5575 5574 5572 5570 5568 5566 5564 5562 5560 5559 5557 5555 5554 5551 5549 5548 5547 5546 5546 5547 5548
5565 5566 5568 5570 5574 5574 5573 5574 5574 5574 5573 5572 5572 5578 5578 5576 5574 5573 5571 5570 5569 5568 5567 5566 5564 5562 5560 5558 5556 5554 5552 5550 5548 5546 5545 5543 5540 5538 5537 5536 5535 5536 5536 5537
5553 5554 5557 5559 5560 5561 5562 5563 5563 5562 5562 5562 5564 5566 5568 5566 5564 5563 5561 5560 5559 5558 5557 5555 5554 5552 5550 5548 5546 5544 5542 5539 5537 5536 5534 5532 5530 5528 5526 5525 5525 5525 5525 5526
5541 5543 5545 5547 5548 5549 5550 5552 5552 5551 5552 5552 5554 5555 5557 5555 5553 5552 5551 5550 5549 5548 5547 5545 5544 5542 5540 5538 5536 5533 5531 5529 5527 5525 5523 5522 5520 5518 5516 5515 5515 5515 5516 5517
5530 5532 5533 5535 5537 5537 5538 5541 5541 5541 5541 5541 5542 5544 5546 5544 5542 5541 5540 5539 5539 5538 5537 5535 5534 5532 5530 5527 5525 5523 5521 5519 5517 5515 5513 5512 5510 5508 5507 5506 5505 5506 5507 5507
5519 5521 5522 5524 5526 5525 5528 5533 5532 5531 5532 5532 5531 5534 5534 5533 5532 5531 5530 5529 5529 5528 5527 5526 5524 5522 5520 5518 5516 5514 5511 5509 5507 5506 5504 5502 5500 5499 5497 5497 5496 5496 5497 5498
5509 5510 5510 5512 5514 5514 5521 5522 5521 5521 5522 5521 5521 5522 5522 5522 5521 5520 5520 5519 5519 5518 5517 5516 5514 5512 5510 5508 5506 5504 5502 5500 5498 5496 5495 5493 5491 5490 5488 5487 5487 5488 5488 5489
5498 5499 5500 5501 5502 5504 5509 5510 5510 5510 5511 5512 5511 5511 5511 5511 5510 5511 5511 5509 5509 5508 5507 5505 5504 5503 5501 5499 5497 5495 5493 5491 5489 5487 5486 5484 5483 5481 5480 5479 5479 5479 5480 5481
5487 5489 5490 5491 5492 5494 5500 5500 5499 5500 5501 5502 5501 5501 5501 5501 5501 5502 5501 5500 5499 5498 5497 5495 5494 5493 5491 5489 5487 5485 5484 5482 5480 5478 5477 5475 5474 5473 5471 5471 5471 5471 5472 5473
5478 5479 5480 5481 5481 5484 5489 5489 5489 5491 5492 5492 5491 5491 5491 5491 5491 5491 5490 5490 5488 5488 5487 5485 5484 5483 5482 5479 5477 5476 5474 5472 5470 5469 5467 5466 5465 5463 5463 5462 5462 5463 5464 5465
5468 5469 5471 5472 5473 5477 5478 5478 5480 5480 5481 5481 5481 5481 5482 5481 5481 5480 5480 5479 5478 5478 5477 5475 5474 5473 5472 5469 5467 5465 5464 5462 5460 5458 5457 5456 5455 5454 5453 5454 5454 5455 5457 5458
5458 5460 5461 5463 5465 5466 5467 5468 5470 5471 5471 5472 5472 5472 5472 5472 5471 5471 5470 5469 5468 5467 5466 5465 5464 5463 5462 5460 5458 5456 5454 5452 5450 5449 5448 5447 5446 5445 5445 5446 5447 5448 5449 5451
5449 5451 5451 5453 5455 5456 5457 5459 5460 5461 5461 5462 5462 5462 5462 5462 5461 5461 5460 5459 5458 5457 5456 5455 5454 5453 5452 5450 5448 5446 5444 5442 5441 5440 5439 5438 5437 5438 5438 5439 5440 5441 5443 5444
5441 5441 5442 5444 5446 5447 5449 5450 5451 5451 5452 5452 5453 5453 5453 5452 5452 5451 5450 5449 5448 5448 5447 5446 5445 5444 5443 5441 5439 5437 5435 5434 5433 5432 5431 5431 5430 5430 5431 5432 5433 5435 5436 5439
5433 5433 5434 5436 5437 5438 5440 5441 5441 5442 5443 5443 5443 5444 5443 5443 5442 5441 5441 5440 5439 5438 5438 5437 5436 5435 5434 5433 5432 5430 5428 5427 5426 5425 5425 5424 5424 5425 5425 5426 5427 5428 5430 5432